FENGYUN 1C DEB

Satellite information

Favourite Embed

Satellite Type and Status

DEBRISIN ORBIT

Key statistics

Satellite FENGYUN 1C DEB at a glance.

Uptime

9555

Days in orbit

Revolutions

≈ 14.2

Per day

Orbit

SSO

Sun Synchronous Orbit

Inclination

98.9

Latest

Satellite identification and parameters

Extended collection of information and parameters for FENGYUN 1C DEB.

Object identification

Identified? True

Debris? True

Object name: FENGYUN 1C DEB

International designator: 1999-025AAA

Object number (NORAD): 30313

Object ID (CCSDS): 30313

Country: PEOPLES REPUBLIC OF CHINA (PRC)

Current information (Y/N): Y

RCS size: SMALL

Orbital parameters

Period: 101.133 minutes

Inclination: 98.8806 deg

SMA: 7190.461 km

Apoapsis: 856.051 km

Periapsis: 768.601 km

RAAN: 272.2462 deg

Eccentricy: 0.006081

Argument of periapsis: 77.7096 deg

Mean anomaly: 36.0248 deg

Mean motion: 14.23861155 rev/day

Mean motion (dot): 0.0000276 rev/day2

B* drag term: 0.0012015 1/REarth

Two-line elements (TLE)

Creation date: July 6, 2025, 10:46 p.m.

Reference frame: TEME

Reference center: EARTH

Epoch: July 6, 2025, 6:25 p.m. UTC

TLE line 0: 0 FENGYUN 1C DEB

TLE line 1: 1 30313U 99025AAA 25187.76754010 .00002760 00000-0 12015-2 0 9994

TLE line 2: 2 30313 98.8806 272.2462 0060810 77.7096 36.0248 14.23861155948377

Live tracking on map

Real-time ground track for satellite FENGYUN 1C DEB.

In-orbit conjunctions

A list of the most updated potential collisions computed for object FENGYUN 1C DEB.

Target Orbit TCA Probability of collision Miss distance Type
DELTA 1 DEB SSO 2025-01-23 22:22:00 0.000105638 98.0 (m) DEBRIS
PICOSAT 9 LEO 2024-12-12 09:18:58 0.0001577861 242.0 (m) PAYLOAD
CZ-6A DEB LEO 2024-12-11 03:37:58 0.0001767501 957.0 (m) DEBRIS

Associated space launch

Chinese polar orbiting meteorological satellite

FENGYUN 1C DEB was lifted into orbit during the mission ‘Long March 4B | Feng Yun 1C’, on board a Long March 4B space rocket.

The launch took place on May 10, 1999, 1:33 a.m. from Launch Complex 7.

For more information about the launch, click the button.

Launch to space Long March 4B | Feng Yun 1C
Long March 4B | Feng Yun 1C

Agency: N/A

Status: Launch Successful

Launch date: May 10, 1999, 1:33 a.m. UTC

Rocket: Long March 4B

Launch pad: Launch Complex 7

Location: Taiyuan Satellite Launch Center, People's Republic of China

...

Latest news about this satellite

There are no fresh news available about this satellite. Check back as we update our databases every day.


Newsletter sign-up

Weekly statistics, charts and insights to help you stay on top of the space industry.